Home   Weather   Kerpen   Past weeks

Flag for Germany Past Weather in Kerpen, North Rhine-Westphalia, Germany — Yesterday and Last 2 Weeks

Now
55 °F

Passing clouds.


Feels Like: 54 °F
Forecast: 36 / 64 °F
Wind: 6 mph from Southeast

Location: Noervenich

Current Time: Apr 29, 2017 at 7:37:04 pm

Latest Report: Apr 29, 2017 at 6:20 pm


Visibility: N/A

Pressure: 30.04 "Hg

Humidity: 38%

Dew Point: 30 °F

Location of KerpenLocation

Past Weather in Kerpen — Graph

°F

Kerpen Temperature Yesterday

Maximum temperature yesterday: 52 °F (at 3:20 pm)
Minimum temperature yesterday: 34 °F (at 5:20 am)
Average temperature yesterday: 44 °F

High & Low Weather Summary for the Past Weeks

 TemperatureHumidityPressure
High59 °F (Apr 24, 3:20 pm)94% (Apr 15, 12:58 pm)30.63 "Hg (Apr 15, 12:58 pm)
Low27 °F (Apr 20, 5:20 am)32% (Apr 20, 6:20 pm)29.71 "Hg (Apr 25, 2:20 am)
Average44 °F66%30.14 "Hg
* Reported Apr 14 6:20 pm — Apr 29 6:20 pm, Kerpen, Weather by CustomWeather, © 2017

Note: Actual official high and low records may vary slightly from our data, if they occured in-between our weather recording intervals... More about our weather records

Advertising

Kerpen Weather History for the Previous 24 Hours

Scroll right to see more
 ConditionsComfort  
Time TempWeatherWind HumidityBarometerVisibility
6:20 pm
Sat, Apr 29
55 °FPassing clouds.6 mph38%30.04 "HgN/A
5:20 pm54 °FPassing clouds.5 mph41%30.04 "HgN/A
4:20 pm54 °FPassing clouds.2 mph41%30.04 "HgN/A
3:20 pm54 °FPassing clouds.7 mph41%30.07 "HgN/A
2:20 pm52 °FScattered clouds.5 mph44%30.07 "HgN/A
1:20 pm50 °FScattered clouds.6 mph47%30.07 "HgN/A
12:20 pm48 °FCool.6 mph54%30.09 "HgN/A
11:20 am46 °FCool.6 mph57%30.09 "HgN/A
10:20 am46 °FCool.6 mph57%30.07 "HgN/A
9:20 am46 °FCool.5 mph66%30.07 "HgN/A
8:20 am41 °FQuite cool.1 mph76%30.07 "HgN/A
7:20 am39 °FChilly.1 mph81%30.07 "HgN/A
6:20 am36 °FChilly.5 mph87%30.07 "HgN/A
5:20 am36 °FPassing clouds.5 mph87%30.07 "HgN/A
4:20 am37 °FPassing clouds.7 mph87%30.07 "HgN/A
3:20 am37 °FPassing clouds.7 mph81%30.04 "HgN/A
2:20 am39 °FPassing clouds.8 mph81%30.04 "HgN/A
1:20 am43 °FPassing clouds.7 mph81%30.04 "HgN/A
12:20 am45 °FPassing clouds.8 mph76%30.04 "HgN/A
11:20 pm
Fri, Apr 28
43 °FPassing clouds.8 mph81%30.01 "HgN/A
10:20 pm45 °FPassing clouds.5 mph81%30.01 "HgN/A
9:20 pm46 °FCool.7 mph76%29.98 "HgN/A
8:20 pm48 °FCool.9 mph71%29.98 "HgN/A
7:20 pm50 °FCool.9 mph67%29.98 "HgN/A
Weather by CustomWeather, © 2017

See weather overviewHow to use our weather pages